• MPC Preparation (Info)

  • MPEC 2023-J78 : 2023 AN6

    The following Minor Planet Electronic Circular may be linked-to from your own Web pages, but must not otherwise be redistributed electronically.

    A form allowing access to any MPEC is at the bottom of this page.


    Read MPEC 2023-J77 Read MPEC 2023-J79


    M.P.E.C. 2023-J78                                  Issued 2023 May 10, 18:03 UT
    
         The Minor Planet Electronic Circulars contain information on unusual
             minor planets, routine data on comets and natural satellites,
             and occasional editorial announcements.  They are published
        on behalf of Division F of the International Astronomical Union by the
              Minor Planet Center, Smithsonian Astrophysical Observatory,
                              Cambridge, MA 02138, U.S.A.
    			  
                 Prepared using the Tamkin Foundation Computer Network
    
                                  MPC@CFA.HARVARD.EDU
                URL https://www.minorplanetcenter.net/    ISSN 1523-6714
    
                                    2023 AN6                                 
    
    
    Observations:
         K23A06N* C2023 01 15.55645905 12 11.832+46 54 46.62         16.4 GVEJ078P07
         K23A06N  C2023 01 15.60940606 48 23.825+25 58 33.35         15.5 GVEJ078P07
         K23A06N  C2023 01 15.61185206 50 51.473+25 12 07.60         15.6 GVEJ078P07
         K23A06N  C2023 01 15.66162007 24 45.286+13 17 05.57         16.7 GVEJ078P07
         K23A06N  C2023 01 15.69884007 38 46.133+07 46 55.74         16.8 GVEJ078P07
         K23A06N  C2023 01 15.72661807 46 07.805+04 48 45.72         17.1 GVEJ078P07
         K23A06N  C2023 01 15.74143407 49 20.666+03 30 34.34         17.5 GVEJ078P07
         K23A06N  C2023 01 15.78322907 56 35.066+00 35 18.02         18.0 GVEJ078P07
    
    Observer details:
    P07 Space Surveillance Telescope, HEH Station.  Observers M. Blythe, R.
        Brungard, P. Festler, T. McVey, J. Paige, G. Spitz, L. Banks.  Measurers
        M. Cornell, M. Kotson, R. Rios, J. Ruprecht, J. Vaillancourt, J. Varey, H.
        Viggh, D. Woods, R. Monardez.  3.5-m f/1. Reflector + CCD.
    
    Orbital elements:
    2023 AN6                                                 Earth MOID = 0.0003 AU
    Epoch 2023 Feb. 25.0 TT = JDT 2460000.5                 Veres                   
    M  23.02720              (2000.0)            P               Q                  
    n   0.31352159     Peri.  133.44186     +0.35634394     -0.91571806             
    a   2.1459738      Node   294.82506     +0.78726114     +0.40129061             
    e   0.5946792      Incl.   11.80561     +0.50322847     +0.02064683             
    P   3.14           H   30.64          G   0.15           U   9                  
    Residuals in seconds of arc
    230115 P07  0.2-  1.2-    230115 P07  3.5+  4.9-    230115 P07  0.7-  0.8+
    230115 P07  0.2-  2.1+    230115 P07  1.0-  1.4+    230115 P07  0.3-  0.7-
    230115 P07  0.3-  1.4+    230115 P07  0.9-  0.8+
    
    Ephemeris:
    2023 AN6                 a,e,i = 2.15, 0.59, 12                  q = 0.8698
    Date    TT    R. A. (2000) Decl.     Delta      r    Elong.  Phase     V
    2023 04 10    09 24 27.9 -05 06 16   0.9045  1.6788   123.4    29.9    32.8
    ...
    2023 04 25    09 43 11.9 -04 35 57   1.1375  1.8013   114.2    30.6    33.5
    ...
    2023 05 03    09 53 50.5 -04 34 20   1.2692  1.8647   109.4    30.6    33.8
    ...
    2023 05 09    10 02 01.7 -04 39 04   1.3709  1.9113   105.8    30.5    34.0
    2023 05 10    10 03 24.4 -04 40 19   1.3880  1.9190   105.2    30.5    34.1
    2023 05 11    10 04 47.4 -04 41 42   1.4052  1.9267   104.6    30.5    34.1
    ...
    2023 05 17    10 13 09.3 -04 52 32   1.5097  1.9722   101.1    30.2    34.3
    ...
    2023 05 25    10 24 28.9 -05 13 29   1.6515  2.0317    96.4    29.7    34.6
    ...
    2023 06 09    10 46 04.1 -06 10 14   1.9227  2.1393    87.8    28.3    35.0
    
    M. P. C. Staff               (C) Copyright 2023 MPC           M.P.E.C. 2023-J78
    


    Read MPEC 2023-J77 Read MPEC 2023-J79


    MPEC number:

    Enter an MPEC number in one of the following forms:

    • 1997-B01 (the full form)
    • J97B01 (the packed version of the full form)
    • B01 (the abbreviated form)